NOAA NWS Hourly Roundups by Site

Regional Weather Roundup for State College, PA

To Select Another Site Choose from List

Select Site:  

000
ASUS41 KCTP 170510
RWRCTP

REGIONAL WEATHER ROUNDUP
NATIONAL WEATHER SERVICE STATE COLLEGE PA
100 AM EDT THU OCT 17 2019

Note: "fair" indicates few or no clouds below 12,000 feet with no
significant weather and/or obstructions to visibility.

* = STATION THAT DOES NOT REPORT PRECIPITATION /E.G. RAIN...SNOW...ETC/
    THUNDER OR FOG.

PAZ002>004-007>009-013>016-020>023-029>032-170600-
WESTERN PENNSYLVANIA

CITY           SKY/WX    TMP DP  RH WIND       PRES   REMARKS
ERIE           LGT RAIN  49  40  71 W17G36    29.58F
MEADVILLE      LGT RAIN  42  39  89 W13G24    29.61S
FRANKLIN*      RAIN      42  40  92 W9G18     29.61S
NEW CASTLE     CLOUDY    44  41  89 W13G21    29.67F
BEAVER COUNTY  CLOUDY    46  40  79 W9G21     29.68R
BUTLER*        LGT RAIN  43  42  97 VRB6      29.66S
PITTSBURGH INT LGT RAIN  45  42  89 W20G28    29.68S
PITTSBURGH     LGT RAIN  45  43  93 W14G26    29.67S
INDIANA*       CLOUDY    45  43  93 NW10G17   29.64S
LATROBE        DRIZZLE   45  45 100 SW13G23   29.67S
WASHINGTON CO* LGT RAIN  46  43  89 W20       29.74S
$$

PAZ004>006-010>012-017>019-024>028-033>037-041-042-045-046-049>053-170600-
CENTRAL PENNSYLVANIA

CITY           SKY/WX    TMP DP  RH WIND       PRES   REMARKS
BRADFORD       LGT RAIN  41  37  86 W16G23    29.49F
DUBOIS         CLOUDY    42  39  89 W15G26    29.54S
CLEARFIELD     CLOUDY    45  39  79 W13G25    29.53F
JOHNSTOWN      LGT RAIN  42  39  89 W21G38    29.58F
ALTOONA        CLOUDY    47  39  74 W17G31    29.55S
STATE COLLEGE  CLOUDY    47  40  75 W17G28    29.51F
WILLIAMSPORT   CLOUDY    49  43  80 W8        29.45F
SELINSGROVE    CLOUDY    51  41  68 VRB6      29.48F
FT INDIANTOWN  CLOUDY    52  39  62 W13G26    29.45F
CAPITAL CITY   MOCLDY    54  39  57 NW10      29.49S
HARRISBURG     MOCLDY    52  40  63 NW15      29.47F
YORK           MOCLDY    50  38  63 W10       29.50S
$$

PAZ038>040-043-044-047-048-054-055-060>062-067>071-170600-
EASTERN PENNSYLVANIA

CITY           SKY/WX    TMP DP  RH WIND       PRES   REMARKS
SCRANTON       NOT AVBL
MOUNT POCONO   NOT AVBL
ALLENTOWN      NOT AVBL
QUAKERTOWN*    CLOUDY    50  41  71 W9G22     29.40S
READING        CLOUDY    52  43  71 NW20      29.43F
LANCASTER      CLOUDY    52  40  63 W13       29.46F
COATESVILLE    CLOUDY    50  41  71 W15G26    29.46R
POTTSTOWN      CLOUDY    50  40  68 W8G18     29.44R
BLUE BELL      CLOUDY    51  41  68 W10G24    29.41R
DOYLESTOWN     MOCLDY    51  40  65 NW17G28   29.37R
WILLOW GROVE   NOT AVBL
NORTH PHILA    MOCLDY    54  39  57 W15G32    29.42R
PHILADELPHIA   CLOUDY    53  38  56 W17G28    29.44S
$$


 

View Past Reports for State College, PA.

Products Courtesy of NOAA-NWS
NWS Information Parsing Script by Ken True at Saratoga Weather - Script by SE Lincoln Weather.